Regional Weather Roundup
Issued by NWS

Home | Current Version | Previous Version | Text Only | Print | Product List | Glossary Off
Versions: 1 2 3 4 5 6 7 8 9 10 11 12 13 14 15 16 17 18 19 20 21 22 23 24 25 26 27 28 29 30 31 32 33 34 35 36 37 38 39 40 41 42 43 44 45 46 47 48 49 50

000
ASUS43 KLSX 222310
RWRMO

WEATHER SUMMARY FOR MISSOURI
NATIONAL WEATHER SERVICE SPRINGFIELD MO
600 PM CDT MON MAY 22 2017

NOTE: "FAIR" INDICATES FEW OR NO CLOUDS BELOW 12,000 FEET WITH NO
       SIGNIFICANT WEATHER AND/OR OBSTRUCTIONS TO VISIBILITY.
       CURRENT SKY AND/OR WEATHER CONDITIONS ARE NOT AVAILABLE FOR
       CHILLICOTHE AND FARMINGTON.

MOZ001>031-035>038-043-044-053-054-230000-
...NORTHERN AND WESTERN MISSOURI...

CITY           SKY/WX    TMP DP  RH WIND       PRES   REMARKS
KANSAS CTY INT LGT RAIN  59  57  93 NE6       29.95F
KANSAS C DTWN  LGT RAIN  61  57  87 NE6       29.95F
LEE`S SUMMIT   CLOUDY    60  56  86 N8        29.97F
ST JOSEPH      CLOUDY    60  57  89 SW6       29.92F
CHILLICOTHE      N/A     61  56  83 VRB5      29.99R
KIRKSVILLE     LGT RAIN  61  58  90 SW12      29.97S

$$
MOZ066>068-077>081-088>096-101>105-230000-
...SOUTHWEST MISSOURI...

CITY           SKY/WX    TMP DP  RH WIND       PRES   REMARKS
SPRINGFIELD    CLOUDY    74  48  39 S8        29.95F
JOPLIN         CLOUDY    73  51  46 SW12      29.96S
BRANSON        PTSUNNY   72  48  43 SE6       29.98F

$$
MOZ032>034-039>042-045>050-055>058-069>072-230000-
...CENTRAL MISSOURI...

CITY           SKY/WX    TMP DP  RH WIND       PRES   REMARKS
COLUMBIA       MOSUNNY   71  54  54 SW5       29.95F
JEFFERSON CITY PTSUNNY   75  53  46 W3        29.94
ROLLA          CLOUDY    70  55  59 S6        29.96F
SEDALIA        PTSUNNY   71  58  63 SW5       29.97S
WHITEMAN AFB   CLOUDY    70  59  68 W5        29.95S
WARRENSBURG    CLOUDY    70  55  60 CALM      29.95S
OSAGE BEACH    CLOUDY    73  54  51 S7        29.96

$$
MOZ051-052-059>065-230000-
...EAST CENTRAL MISSOURI...

CITY           SKY/WX    TMP DP  RH WIND       PRES   REMARKS
ST LOUIS INTL  PTSUNNY   77  45  32 W7        29.97F
SPIRIT OF STL  MOSUNNY   73  52  47 SW5       29.96F
ST CHARLES     MOSUNNY   75  47  36 SW9       29.96F

$$
MOZ072>076-082>087-097>100-106>115-230000-
...SOUTH CENTRAL AND SOUTHEAST MISSOURI...

CITY           SKY/WX    TMP DP  RH WIND       PRES   REMARKS
CAPE GIRARDEAU CLOUDY    73  47  39 CALM      29.97F
FARMINGTON     PTSUNNY   73  49  42 S6        29.99F
POPLAR BLUFF   CLOUDY    74  49  41 W5        29.96F
WEST PLAINS    MOSUNNY   71  47  42 SE6       29.99F

$$




USA.gov is the U.S. government's official web portal to all federal, state and local government web resources and services.